Time,TemperatureF,DewpointF,PressureIn,WindDirection,WindDirectionDegrees,WindSpeedMPH,WindSpeedGustMPH,Humidity,HourlyPrecipIn,Conditions,Clouds,dailyrainin,SoftwareType,DateUTC
2013-09-04 00:02:00,66.3,60.3,30.01,NE,34,0.0,0.0,81,0.00,CLR,,0.00,WeatherDisplay:10.37,2013-09-04 05:02:00,
2013-09-04 00:07:00,65.9,60.2,30.01,NE,34,0.0,0.0,82,0.00,CLR,,0.00,WeatherDisplay:10.37,2013-09-04 05:07:00,
2013-09-04 00:12:00,65.7,59.7,30.01,East,93,0.0,0.0,81,0.00,CLR,,0.00,WeatherDisplay:10.37,2013-09-04 05:12:00,
2013-09-04 00:17:00,65.8,60.2,30.01,NE,43,0.0,0.0,82,0.00,CLR,,0.00,WeatherDisplay:10.37,2013-09-04 05:17:00,
2013-09-04 00:22:00,65.6,60.0,30.01,ENE,70,0.0,0.0,82,0.00,CLR,,0.00,WeatherDisplay:10.37,2013-09-04 05:22:00,
2013-09-04 00:27:00,65.3,60.0,30.01,ENE,70,0.0,0.0,83,0.00,CLR,,0.00,WeatherDisplay:10.37,2013-09-04 05:27:00,
2013-09-04 00:32:00,64.9,59.9,30.01,ENE,70,0.0,0.0,84,0.00,CLR,,0.00,WeatherDisplay:10.37,2013-09-04 05:32:00,
2013-09-04 00:37:00,64.6,60.0,30.01,ENE,70,0.0,0.0,85,0.00,CLR,,0.00,WeatherDisplay:10.37,2013-09-04 05:37:00,
2013-09-04 00:42:00,64.6,59.7,30.01,ENE,68,0.0,0.0,84,0.00,CLR,,0.00,WeatherDisplay:10.37,2013-09-04 05:42:00,
2013-09-04 00:47:00,64.7,59.1,30.02,ENE,68,0.0,0.0,82,0.00,CLR,,0.00,WeatherDisplay:10.37,2013-09-04 05:47:00,
2013-09-04 00:52:00,64.7,59.1,30.02,ENE,71,0.0,0.0,82,0.00,CLR,,0.00,WeatherDisplay:10.37,2013-09-04 05:52:00,
2013-09-04 00:57:00,65.0,59.4,30.02,ENE,70,0.0,0.0,82,0.00,CLR,,0.00,WeatherDisplay:10.37,2013-09-04 05:57:00,
2013-09-04 01:02:00,64.9,59.3,30.02,ENE,70,0.0,0.0,82,0.00,CLR,,0.00,WeatherDisplay:10.37,2013-09-04 06:02:00,
2013-09-04 01:07:00,64.9,59.3,30.02,ENE,72,0.0,0.0,82,0.00,CLR,,0.00,WeatherDisplay:10.37,2013-09-04 06:07:00,
2013-09-04 01:12:00,64.7,59.4,30.02,ENE,72,0.0,0.0,83,0.00,,,0.00,WeatherDisplay:10.37,2013-09-04 06:12:00,
2013-09-04 01:17:00,64.4,59.1,30.02,ENE,72,0.0,0.0,83,0.00,,,0.00,WeatherDisplay:10.37,2013-09-04 06:17:00,
2013-09-04 01:22:00,64.0,59.1,30.02,ENE,72,0.0,0.0,84,0.00,,,0.00,WeatherDisplay:10.37,2013-09-04 06:22:00,
2013-09-04 01:27:00,63.6,59.0,30.02,ENE,72,0.0,0.0,85,0.00,,,0.00,WeatherDisplay:10.37,2013-09-04 06:27:00,
2013-09-04 01:32:00,63.3,58.7,30.02,ENE,72,0.0,0.0,85,0.00,,,0.00,WeatherDisplay:10.37,2013-09-04 06:32:00,
2013-09-04 01:37:00,63.0,58.7,30.03,ENE,72,0.0,0.0,86,0.00,,,0.00,WeatherDisplay:10.37,2013-09-04 06:37:00,
2013-09-04 01:42:00,62.6,58.4,30.02,ENE,72,0.0,0.0,86,0.00,,,0.00,WeatherDisplay:10.37,2013-09-04 06:42:00,
2013-09-04 01:47:00,62.6,58.4,30.02,ENE,72,0.0,0.0,86,0.00,,,0.00,WeatherDisplay:10.37,2013-09-04 06:47:00,
2013-09-04 01:52:00,63.2,58.6,30.01,ENE,72,0.0,1.1,85,0.00,,,0.00,WeatherDisplay:10.37,2013-09-04 06:52:00,
2013-09-04 01:57:00,63.7,58.4,30.02,ENE,66,0.0,0.0,83,0.00,,,0.00,WeatherDisplay:10.37,2013-09-04 06:57:00,
2013-09-04 02:02:00,63.7,58.4,30.01,ENE,65,0.0,0.0,83,0.00,,,0.00,WeatherDisplay:10.37,2013-09-04 07:02:00,
2013-09-04 02:07:00,63.7,58.4,30.01,ENE,65,0.0,0.0,83,0.00,,,0.00,WeatherDisplay:10.37,2013-09-04 07:07:00,
2013-09-04 02:13:00,63.5,58.2,30.02,ENE,67,0.0,0.0,83,0.00,,,0.00,WeatherDisplay:10.37,2013-09-04 07:13:00,
2013-09-04 02:18:00,63.4,58.1,30.02,ENE,65,0.0,0.0,83,0.00,,,0.00,WeatherDisplay:10.37,2013-09-04 07:18:00,
2013-09-04 02:23:00,63.4,58.5,30.02,ENE,67,0.0,0.0,84,0.00,,,0.00,WeatherDisplay:10.37,2013-09-04 07:23:00,
2013-09-04 02:28:00,63.8,58.5,30.01,ENE,67,0.0,0.0,83,0.00,,,0.00,WeatherDisplay:10.37,2013-09-04 07:28:00,
2013-09-04 02:33:00,63.7,58.4,30.01,ENE,67,0.0,0.0,83,0.00,,,0.00,WeatherDisplay:10.37,2013-09-04 07:33:00,
2013-09-04 02:38:00,63.6,58.3,30.01,ENE,76,0.0,0.0,83,0.00,,,0.00,WeatherDisplay:10.37,2013-09-04 07:38:00,
2013-09-04 02:43:00,63.5,58.2,30.01,ENE,76,0.0,0.0,83,0.00,,,0.00,WeatherDisplay:10.37,2013-09-04 07:43:00,
2013-09-04 02:48:00,63.3,58.0,30.02,ENE,76,0.0,0.0,83,0.00,,,0.00,WeatherDisplay:10.37,2013-09-04 07:48:00,
2013-09-04 02:53:00,63.6,58.0,30.02,ENE,76,0.0,0.0,82,0.00,,,0.00,WeatherDisplay:10.37,2013-09-04 07:53:00,
2013-09-04 02:58:00,63.8,58.2,30.01,ENE,76,0.0,0.0,82,0.00,,,0.00,WeatherDisplay:10.37,2013-09-04 07:58:00,
2013-09-04 03:03:00,63.9,58.3,30.02,ENE,75,0.0,0.0,82,0.00,,,0.00,WeatherDisplay:10.37,2013-09-04 08:03:00,
2013-09-04 03:08:00,63.7,58.4,30.02,NE,47,0.0,0.0,83,0.00,,,0.00,WeatherDisplay:10.37,2013-09-04 08:08:00,
2013-09-04 03:13:00,63.5,58.6,30.02,NE,39,0.3,1.1,84,0.00,,,0.00,WeatherDisplay:10.37,2013-09-04 08:13:00,
2013-09-04 03:18:00,63.3,58.4,30.02,NE,43,0.1,1.1,84,0.00,,,0.00,WeatherDisplay:10.37,2013-09-04 08:18:00,
2013-09-04 03:23:00,63.3,58.7,30.02,NE,44,0.0,0.0,85,0.00,,,0.00,WeatherDisplay:10.37,2013-09-04 08:23:00,
2013-09-04 03:28:00,62.8,58.5,30.02,NE,44,0.0,0.0,86,0.00,,,0.00,WeatherDisplay:10.37,2013-09-04 08:28:00,
2013-09-04 03:33:00,62.4,58.2,30.02,NE,44,0.0,0.0,86,0.00,,,0.00,WeatherDisplay:10.37,2013-09-04 08:33:00,
2013-09-04 03:38:00,62.2,58.3,30.02,NE,43,0.0,0.0,87,0.00,,,0.00,WeatherDisplay:10.37,2013-09-04 08:38:00,
2013-09-04 03:43:00,62.4,58.2,30.02,NE,43,0.0,0.0,86,0.00,,,0.00,WeatherDisplay:10.37,2013-09-04 08:43:00,
2013-09-04 03:48:00,62.2,58.0,30.02,NE,43,0.0,0.0,86,0.00,,,0.00,WeatherDisplay:10.37,2013-09-04 08:48:00,
2013-09-04 03:53:00,62.0,57.8,30.02,NE,43,0.0,0.0,86,0.00,,,0.00,WeatherDisplay:10.37,2013-09-04 08:53:00,
2013-09-04 03:58:00,61.8,57.6,30.02,NE,43,0.0,0.0,86,0.00,,,0.00,WeatherDisplay:10.37,2013-09-04 08:58:00,
2013-09-04 04:03:00,61.6,57.7,30.02,NE,43,0.0,0.0,87,0.00,,,0.00,WeatherDisplay:10.37,2013-09-04 09:03:00,
2013-09-04 04:08:00,61.7,57.8,30.02,NE,42,0.0,0.0,87,0.00,,,0.00,WeatherDisplay:10.37,2013-09-04 09:08:00,
2013-09-04 04:13:00,61.5,57.6,30.02,NE,43,0.0,0.0,87,0.00,,,0.00,WeatherDisplay:10.37,2013-09-04 09:13:00,
2013-09-04 04:18:00,61.1,57.2,30.02,NE,43,0.0,0.0,87,0.00,,,0.00,WeatherDisplay:10.37,2013-09-04 09:18:00,
2013-09-04 04:23:00,60.6,57.0,30.02,NE,43,0.0,0.0,88,0.00,,,0.00,WeatherDisplay:10.37,2013-09-04 09:23:00,
2013-09-04 04:28:00,60.2,56.9,30.02,NE,43,0.0,0.0,89,0.00,,,0.00,WeatherDisplay:10.37,2013-09-04 09:28:00,
2013-09-04 04:33:00,60.5,57.6,30.03,NE,43,0.0,0.0,90,0.00,,,0.00,WeatherDisplay:10.37,2013-09-04 09:33:00,
2013-09-04 04:38:00,61.0,57.7,30.03,NE,43,0.0,0.0,89,0.00,,,0.00,WeatherDisplay:10.37,2013-09-04 09:38:00,
2013-09-04 04:43:00,61.3,57.7,30.03,NE,43,0.0,0.0,88,0.00,,,0.00,WeatherDisplay:10.37,2013-09-04 09:43:00,
2013-09-04 04:48:00,61.1,57.5,30.03,NE,43,0.0,0.0,88,0.00,,,0.00,WeatherDisplay:10.37,2013-09-04 09:48:00,
2013-09-04 04:53:00,60.9,57.3,30.03,NE,43,0.0,0.0,88,0.00,,,0.00,WeatherDisplay:10.37,2013-09-04 09:53:00,
2013-09-04 04:58:00,61.0,57.7,30.03,NE,43,0.0,0.0,89,0.00,,,0.00,WeatherDisplay:10.37,2013-09-04 09:58:00,
2013-09-04 05:03:00,61.1,57.5,30.03,NE,43,0.0,0.0,88,0.00,,,0.00,WeatherDisplay:10.37,2013-09-04 10:03:00,
2013-09-04 05:08:00,60.8,57.2,30.03,NE,44,0.0,0.0,88,0.00,,,0.00,WeatherDisplay:10.37,2013-09-04 10:08:00,
2013-09-04 05:13:00,60.5,57.2,30.03,NE,43,0.0,0.0,89,0.00,,,0.00,WeatherDisplay:10.37,2013-09-04 10:13:00,
2013-09-04 05:18:00,60.9,57.6,30.03,NE,44,0.0,1.1,89,0.00,,,0.00,WeatherDisplay:10.37,2013-09-04 10:18:00,
2013-09-04 05:23:00,61.4,57.8,30.03,ENE,61,0.0,0.0,88,0.00,,,0.00,WeatherDisplay:10.37,2013-09-04 10:23:00,
2013-09-04 05:28:00,61.5,57.6,30.03,ENE,76,0.0,0.0,87,0.00,,,0.00,WeatherDisplay:10.37,2013-09-04 10:28:00,
2013-09-04 05:33:00,61.6,57.7,30.03,ENE,75,0.0,0.0,87,0.00,,,0.00,WeatherDisplay:10.37,2013-09-04 10:33:00,
2013-09-04 05:38:00,61.5,57.6,30.03,ENE,75,0.0,0.0,87,0.00,,,0.00,WeatherDisplay:10.37,2013-09-04 10:38:00,
2013-09-04 05:43:00,61.3,57.4,30.03,ENE,75,0.0,0.0,87,0.00,,,0.00,WeatherDisplay:10.37,2013-09-04 10:43:00,
2013-09-04 05:48:00,60.8,56.9,30.04,ENE,75,0.0,0.0,87,0.00,,,0.00,WeatherDisplay:10.37,2013-09-04 10:48:00,
2013-09-04 05:53:00,60.1,56.8,30.04,ENE,75,0.0,0.0,89,0.00,,,0.00,WeatherDisplay:10.37,2013-09-04 10:53:00,
2013-09-04 05:58:00,59.4,56.5,30.04,ENE,75,0.0,0.0,90,0.00,,,0.00,WeatherDisplay:10.37,2013-09-04 10:58:00,
2013-09-04 06:03:00,58.9,56.3,30.04,ENE,75,0.0,0.0,91,0.00,,,0.00,WeatherDisplay:10.37,2013-09-04 11:03:00,
2013-09-04 06:08:00,58.6,56.3,30.04,ENE,75,0.0,0.0,92,0.00,,,0.00,WeatherDisplay:10.37,2013-09-04 11:08:00,
2013-09-04 06:13:00,58.4,56.1,30.04,ENE,75,0.0,0.0,92,0.00,,,0.00,WeatherDisplay:10.37,2013-09-04 11:13:00,
2013-09-04 06:18:00,58.0,55.7,30.04,ENE,75,0.0,0.0,92,0.00,CLR,,0.00,WeatherDisplay:10.37,2013-09-04 11:18:00,
2013-09-04 06:23:00,57.6,55.3,30.04,ENE,75,0.0,0.0,92,0.00,CLR,,0.00,WeatherDisplay:10.37,2013-09-04 11:23:00,
2013-09-04 06:28:00,57.8,55.8,30.05,ENE,75,0.0,0.0,93,0.00,CLR,,0.00,WeatherDisplay:10.37,2013-09-04 11:28:00,
2013-09-04 06:33:00,57.9,56.2,30.05,ENE,75,0.0,0.0,94,0.00,CLR,,0.00,WeatherDisplay:10.37,2013-09-04 11:33:00,
2013-09-04 06:38:00,58.2,56.5,30.05,ENE,75,0.0,0.0,94,0.00,CLR,,0.00,WeatherDisplay:10.37,2013-09-04 11:38:00,
2013-09-04 06:43:00,58.6,56.9,30.05,ENE,75,0.0,0.0,94,0.00,CLR,,0.00,WeatherDisplay:10.37,2013-09-04 11:43:00,
2013-09-04 06:48:00,59.0,57.0,30.05,ENE,75,0.0,0.0,93,0.00,CLR,,0.00,WeatherDisplay:10.37,2013-09-04 11:48:00,
2013-09-04 06:53:00,59.3,57.3,30.06,ENE,75,0.0,0.0,93,0.00,CLR,,0.00,WeatherDisplay:10.37,2013-09-04 11:53:00,
2013-09-04 06:58:00,59.4,57.1,30.06,ENE,75,0.0,0.0,92,0.00,CLR,,0.00,WeatherDisplay:10.37,2013-09-04 11:58:00,
2013-09-04 07:03:00,59.6,57.3,30.06,ENE,75,0.0,0.0,92,0.00,CLR,,0.00,WeatherDisplay:10.37,2013-09-04 12:03:00,
2013-09-04 07:08:00,59.6,57.0,30.06,ENE,75,0.0,0.0,91,0.00,CLR,,0.00,WeatherDisplay:10.37,2013-09-04 12:08:00,
2013-09-04 07:13:00,59.4,56.8,30.06,ENE,75,0.0,0.0,91,0.00,CLR,,0.00,WeatherDisplay:10.37,2013-09-04 12:13:00,
2013-09-04 07:18:00,59.3,56.7,30.06,ENE,75,0.0,0.0,91,0.00,CLR,,0.00,WeatherDisplay:10.37,2013-09-04 12:18:00,
2013-09-04 07:23:00,59.3,57.0,30.07,ENE,75,0.0,0.0,92,0.00,CLR,,0.00,WeatherDisplay:10.37,2013-09-04 12:23:00,
2013-09-04 07:28:00,59.4,57.1,30.07,ENE,75,0.0,0.0,92,0.00,CLR,,0.00,WeatherDisplay:10.37,2013-09-04 12:28:00,
2013-09-04 07:33:00,59.8,57.5,30.07,ENE,75,0.0,0.0,92,0.00,CLR,,0.00,WeatherDisplay:10.37,2013-09-04 12:33:00,
2013-09-04 07:38:00,60.4,58.1,30.07,ENE,75,0.0,0.0,92,0.00,CLR,,0.00,WeatherDisplay:10.37,2013-09-04 12:38:00,
2013-09-04 07:43:00,61.2,58.6,30.07,ENE,75,0.0,0.0,91,0.00,CLR,,0.00,WeatherDisplay:10.37,2013-09-04 12:43:00,
2013-09-04 07:48:00,62.3,59.0,30.07,ENE,75,0.0,0.0,89,0.00,CLR,,0.00,WeatherDisplay:10.37,2013-09-04 12:48:00,
2013-09-04 07:53:00,63.5,59.6,30.07,ENE,75,0.0,0.0,87,0.00,CLR,,0.00,WeatherDisplay:10.37,2013-09-04 12:53:00,
2013-09-04 07:59:00,64.9,60.6,30.07,ENE,75,0.0,0.0,86,0.00,CLR,,0.00,WeatherDisplay:10.37,2013-09-04 12:59:00,
2013-09-04 08:04:00,66.4,61.1,30.07,ENE,75,0.0,0.0,83,0.00,CLR,,0.00,WeatherDisplay:10.37,2013-09-04 13:04:00,
2013-09-04 08:09:00,67.0,61.3,30.07,ENE,75,0.0,0.0,82,0.00,CLR,,0.00,WeatherDisplay:10.37,2013-09-04 13:09:00,
2013-09-04 08:14:00,66.9,60.9,30.07,ENE,75,0.0,1.1,81,0.00,CLR,,0.00,WeatherDisplay:10.37,2013-09-04 13:14:00,
2013-09-04 08:19:00,66.8,60.8,30.08,NE,46,0.0,1.1,81,0.00,CLR,,0.00,WeatherDisplay:10.37,2013-09-04 13:19:00,
2013-09-04 08:24:00,67.3,61.3,30.08,NE,46,0.0,0.0,81,0.00,CLR,,0.00,WeatherDisplay:10.37,2013-09-04 13:24:00,
2013-09-04 08:29:00,68.2,61.4,30.08,NE,46,0.0,0.0,79,0.00,CLR,,0.00,WeatherDisplay:10.37,2013-09-04 13:29:00,
2013-09-04 08:34:00,69.2,61.7,30.08,NE,44,0.2,1.1,77,0.00,CLR,,0.00,WeatherDisplay:10.37,2013-09-04 13:34:00,
2013-09-04 08:39:00,69.1,61.2,30.08,East,82,0.3,1.1,76,0.00,CLR,,0.00,WeatherDisplay:10.37,2013-09-04 13:39:00,
2013-09-04 08:44:00,69.6,62.1,30.08,East,82,0.0,0.0,77,0.00,CLR,,0.00,WeatherDisplay:10.37,2013-09-04 13:44:00,
2013-09-04 08:49:00,70.8,63.2,30.08,East,82,0.0,0.0,77,0.00,CLR,,0.00,WeatherDisplay:10.37,2013-09-04 13:49:00,
2013-09-04 08:54:00,71.7,63.4,30.08,ESE,103,0.0,0.0,75,0.00,CLR,,0.00,WeatherDisplay:10.37,2013-09-04 13:54:00,
2013-09-04 08:59:00,72.5,64.1,30.09,ESE,103,0.0,1.1,75,0.00,CLR,,0.00,WeatherDisplay:10.37,2013-09-04 13:59:00,
2013-09-04 09:04:00,73.6,64.0,30.09,ESE,113,0.2,1.1,72,0.00,CLR,,0.00,WeatherDisplay:10.37,2013-09-04 14:04:00,
2013-09-04 09:09:00,74.1,63.7,30.09,ESE,117,0.1,1.1,70,0.00,CLR,,0.00,WeatherDisplay:10.37,2013-09-04 14:09:00,
2013-09-04 09:14:00,73.9,63.5,30.09,East,96,0.8,1.1,70,0.00,CLR,,0.00,WeatherDisplay:10.37,2013-09-04 14:14:00,
2013-09-04 09:19:00,72.9,63.3,30.09,SE,139,0.1,1.1,72,0.00,CLR,,0.00,WeatherDisplay:10.37,2013-09-04 14:19:00,
2013-09-04 09:24:00,73.5,64.3,30.09,SSE,166,0.0,1.1,73,0.00,CLR,,0.00,WeatherDisplay:10.37,2013-09-04 14:24:00,
2013-09-04 09:29:00,74.5,64.5,30.09,WSW,240,0.0,0.0,71,0.00,CLR,,0.00,WeatherDisplay:10.37,2013-09-04 14:29:00,
2013-09-04 09:34:00,73.9,64.7,30.09,West,278,0.1,1.1,73,0.00,CLR,,0.00,WeatherDisplay:10.37,2013-09-04 14:34:00,
2013-09-04 09:39:00,73.7,64.9,30.10,West,277,0.0,0.0,74,0.00,CLR,,0.00,WeatherDisplay:10.37,2013-09-04 14:39:00,
2013-09-04 09:44:00,74.4,65.6,30.10,West,274,0.0,0.0,74,0.00,CLR,,0.00,WeatherDisplay:10.37,2013-09-04 14:44:00,
2013-09-04 09:49:00,75.0,65.4,30.10,SW,226,0.3,2.0,72,0.00,CLR,,0.00,WeatherDisplay:10.37,2013-09-04 14:49:00,
2013-09-04 09:54:00,75.1,65.1,30.10,SW,216,0.3,1.1,71,0.00,CLR,,0.00,WeatherDisplay:10.37,2013-09-04 14:54:00,
2013-09-04 09:59:00,76.0,65.5,30.10,SW,232,0.7,3.0,70,0.00,CLR,,0.00,WeatherDisplay:10.37,2013-09-04 14:59:00,
2013-09-04 10:04:00,75.7,63.1,30.11,SW,233,1.9,2.3,65,0.00,CLR,,0.00,WeatherDisplay:10.37,2013-09-04 15:04:00,
2013-09-04 10:09:00,75.7,65.2,30.10,WSW,238,0.0,0.0,70,0.00,CLR,,0.00,WeatherDisplay:10.37,2013-09-04 15:09:00,
2013-09-04 10:14:00,76.1,63.0,30.11,SW,215,2.8,3.5,64,0.00,CLR,,0.00,WeatherDisplay:10.37,2013-09-04 15:14:00,
2013-09-04 10:19:00,76.1,63.9,30.11,SE,124,0.5,1.1,66,0.00,CLR,,0.00,WeatherDisplay:10.37,2013-09-04 15:19:00,
2013-09-04 10:24:00,76.8,64.6,30.11,West,267,0.6,1.1,66,0.00,CLR,,0.00,WeatherDisplay:10.37,2013-09-04 15:24:00,
2013-09-04 10:29:00,77.3,66.3,30.11,North,354,0.0,0.0,69,0.00,CLR,,0.00,WeatherDisplay:10.37,2013-09-04 15:29:00,
2013-09-04 10:34:00,77.9,64.7,30.11,ESE,116,0.0,0.0,64,0.00,CLR,,0.00,WeatherDisplay:10.37,2013-09-04 15:34:00,
2013-09-04 10:39:00,78.3,66.4,30.11,West,277,0.0,0.0,67,0.00,CLR,,0.00,WeatherDisplay:10.37,2013-09-04 15:39:00,
2013-09-04 10:44:00,79.5,66.3,30.11,SSE,166,0.2,1.1,64,0.00,CLR,,0.00,WeatherDisplay:10.37,2013-09-04 15:44:00,
2013-09-04 10:49:00,79.0,64.9,30.12,SW,233,0.0,1.1,62,0.00,CLR,,0.00,WeatherDisplay:10.37,2013-09-04 15:49:00,
2013-09-04 10:54:00,79.6,65.0,30.12,West,266,0.0,0.0,61,0.00,CLR,,0.00,WeatherDisplay:10.37,2013-09-04 15:54:00,
2013-09-04 10:59:00,80.3,64.7,30.12,East,79,0.0,1.1,59,0.00,CLR,,0.00,WeatherDisplay:10.37,2013-09-04 15:59:00,
2013-09-04 11:04:00,79.7,63.6,30.12,SW,226,0.0,0.0,58,0.00,CLR,,0.00,WeatherDisplay:10.37,2013-09-04 16:04:00,
2013-09-04 11:09:00,79.7,62.6,30.12,SSW,208,0.1,1.1,56,0.00,CLR,,0.00,WeatherDisplay:10.37,2013-09-04 16:09:00,
2013-09-04 11:14:00,79.9,65.2,30.11,WNW,295,0.3,1.1,61,0.00,CLR,,0.00,WeatherDisplay:10.37,2013-09-04 16:14:00,
2013-09-04 11:19:00,80.5,63.9,30.11,WSW,255,2.6,3.5,57,0.00,CLR,,0.00,WeatherDisplay:10.37,2013-09-04 16:19:00,
2013-09-04 11:24:00,80.9,64.7,30.12,SSW,201,1.3,2.3,58,0.00,CLR,,0.00,WeatherDisplay:10.37,2013-09-04 16:24:00,
2013-09-04 11:29:00,80.8,61.5,30.12,NNW,340,1.5,3.5,52,0.00,CLR,,0.00,WeatherDisplay:10.37,2013-09-04 16:29:00,
2013-09-04 11:34:00,80.3,63.2,30.11,WNW,301,0.3,1.1,56,0.00,CLR,,0.00,WeatherDisplay:10.37,2013-09-04 16:34:00,
2013-09-04 11:39:00,81.0,62.3,30.11,SW,236,0.9,1.1,53,0.00,CLR,,0.00,WeatherDisplay:10.37,2013-09-04 16:39:00,
2013-09-04 11:44:00,81.3,63.6,30.11,WSW,250,0.0,0.0,55,0.00,CLR,,0.00,WeatherDisplay:10.37,2013-09-04 16:44:00,
2013-09-04 11:49:00,81.5,64.3,30.11,WNW,294,0.5,1.1,56,0.00,CLR,,0.00,WeatherDisplay:10.37,2013-09-04 16:49:00,
2013-09-04 11:54:00,81.1,62.3,30.11,WNW,302,0.9,2.3,53,0.00,CLR,,0.00,WeatherDisplay:10.37,2013-09-04 16:54:00,
2013-09-04 11:59:00,80.8,63.1,30.11,WNW,300,1.4,2.3,55,0.00,CLR,,0.00,WeatherDisplay:10.37,2013-09-04 16:59:00,
2013-09-04 12:04:00,81.4,62.6,30.11,SSE,159,0.2,1.1,53,0.00,CLR,,0.00,WeatherDisplay:10.37,2013-09-04 17:04:00,
2013-09-04 12:09:00,82.3,62.9,30.11,NNW,333,0.7,1.1,52,0.00,CLR,,0.00,WeatherDisplay:10.37,2013-09-04 17:09:00,
2013-09-04 12:14:00,82.5,63.1,30.10,NNW,345,1.0,1.1,52,0.00,CLR,,0.00,WeatherDisplay:10.37,2013-09-04 17:14:00,
2013-09-04 12:19:00,82.5,64.7,30.10,SW,229,0.0,1.0,55,0.00,CLR,,0.00,WeatherDisplay:10.37,2013-09-04 17:19:00,
2013-09-04 12:24:00,83.3,64.4,30.10,ESE,119,0.8,2.3,53,0.00,CLR,,0.00,WeatherDisplay:10.37,2013-09-04 17:24:00,
2013-09-04 12:29:00,83.3,63.3,30.10,ESE,121,0.7,2.0,51,0.00,CLR,,0.00,WeatherDisplay:10.37,2013-09-04 17:29:00,
2013-09-04 12:34:00,83.0,63.6,30.10,SE,126,0.9,3.5,52,0.00,CLR,,0.00,WeatherDisplay:10.37,2013-09-04 17:34:00,
2013-09-04 12:39:00,82.6,63.7,30.10,East,92,0.6,2.3,53,0.00,CLR,,0.00,WeatherDisplay:10.37,2013-09-04 17:39:00,
2013-09-04 12:44:00,82.4,61.9,30.10,SE,145,0.3,2.3,50,0.00,CLR,,0.00,WeatherDisplay:10.37,2013-09-04 17:44:00,
2013-09-04 12:49:00,82.5,62.0,30.10,ENE,58,0.1,1.1,50,0.00,CLR,,0.00,WeatherDisplay:10.37,2013-09-04 17:49:00,
2013-09-04 12:54:00,82.6,62.6,30.09,NE,49,0.6,3.5,51,0.00,CLR,,0.00,WeatherDisplay:10.37,2013-09-04 17:54:00,
2013-09-04 12:59:00,82.3,63.5,30.09,NNE,33,0.7,3.5,53,0.00,CLR,,0.00,WeatherDisplay:10.37,2013-09-04 17:59:00,
2013-09-04 13:04:00,82.2,61.7,30.09,North,358,0.1,2.3,50,0.00,CLR,,0.00,WeatherDisplay:10.37,2013-09-04 18:04:00,
2013-09-04 13:09:00,83.0,64.1,30.09,NE,53,0.1,1.1,53,0.00,CLR,,0.00,WeatherDisplay:10.37,2013-09-04 18:09:00,
2013-09-04 13:14:00,84.7,64.6,30.08,East,86,0.0,1.1,51,0.00,CLR,,0.00,WeatherDisplay:10.37,2013-09-04 18:14:00,
2013-09-04 13:20:00,84.1,61.7,30.08,ESE,113,0.3,1.1,47,0.00,CLR,,0.00,WeatherDisplay:10.37,2013-09-04 18:20:00,
2013-09-04 13:25:00,83.5,63.5,30.08,NW,309,0.8,2.3,51,0.00,CLR,,0.00,WeatherDisplay:10.37,2013-09-04 18:25:00,
2013-09-04 13:30:00,84.6,63.3,30.08,West,260,0.1,1.1,49,0.00,CLR,,0.00,WeatherDisplay:10.37,2013-09-04 18:30:00,
2013-09-04 13:35:00,85.5,62.4,30.08,WNW,287,0.2,1.1,46,0.00,CLR,,0.00,WeatherDisplay:10.37,2013-09-04 18:35:00,
2013-09-04 13:40:00,84.5,61.4,30.08,NNW,341,0.1,1.1,46,0.00,CLR,,0.00,WeatherDisplay:10.37,2013-09-04 18:40:00,
2013-09-04 13:45:00,84.3,61.9,30.08,SSE,163,1.7,3.5,47,0.00,CLR,,0.00,WeatherDisplay:10.37,2013-09-04 18:45:00,
2013-09-04 13:50:00,84.4,62.0,30.08,SW,226,1.1,3.5,47,0.00,CLR,,0.00,WeatherDisplay:10.37,2013-09-04 18:50:00,
2013-09-04 13:55:00,83.7,61.9,30.08,SW,225,2.7,3.5,48,0.00,CLR,,0.00,WeatherDisplay:10.37,2013-09-04 18:55:00,
2013-09-04 14:00:00,84.2,63.0,30.07,West,271,1.8,3.5,49,0.00,CLR,,0.00,WeatherDisplay:10.37,2013-09-04 19:00:00,
2013-09-04 14:05:00,84.7,62.8,30.07,ESE,121,1.2,3.5,48,0.00,CLR,,0.00,WeatherDisplay:10.37,2013-09-04 19:05:00,
2013-09-04 14:10:00,84.7,61.6,30.07,NE,44,0.1,1.1,46,0.00,CLR,,0.00,WeatherDisplay:10.37,2013-09-04 19:10:00,
2013-09-04 14:15:00,84.9,61.8,30.07,West,269,0.0,0.0,46,0.00,CLR,,0.00,WeatherDisplay:10.37,2013-09-04 19:15:00,
2013-09-04 14:20:00,85.4,61.6,30.07,NNE,22,1.0,2.3,45,0.00,CLR,,0.00,WeatherDisplay:10.37,2013-09-04 19:20:00,
2013-09-04 14:25:00,85.1,60.7,30.07,WNW,300,0.1,2.3,44,0.00,CLR,,0.00,WeatherDisplay:10.37,2013-09-04 19:25:00,
2013-09-04 14:30:00,85.0,60.6,30.07,West,277,0.7,1.1,44,0.00,CLR,,0.00,WeatherDisplay:10.37,2013-09-04 19:30:00,
2013-09-04 14:35:00,85.2,61.5,30.07,WNW,300,1.2,2.3,45,0.00,CLR,,0.00,WeatherDisplay:10.37,2013-09-04 19:35:00,
2013-09-04 14:40:00,85.8,60.7,30.06,NNW,328,1.1,3.5,43,0.00,CLR,,0.00,WeatherDisplay:10.37,2013-09-04 19:40:00,
2013-09-04 14:45:00,85.6,61.8,30.06,WNW,296,0.5,2.3,45,0.00,CLR,,0.00,WeatherDisplay:10.37,2013-09-04 19:45:00,
2013-09-04 14:50:00,85.5,64.2,30.06,NW,314,0.0,0.0,49,0.00,CLR,,0.00,WeatherDisplay:10.37,2013-09-04 19:50:00,
2013-09-04 14:55:00,86.4,61.9,30.06,North,1,0.8,1.1,44,0.00,CLR,,0.00,WeatherDisplay:10.37,2013-09-04 19:55:00,
2013-09-04 15:00:00,85.6,62.4,30.06,NE,40,1.1,3.5,46,0.00,CLR,,0.00,WeatherDisplay:10.37,2013-09-04 20:00:00,
2013-09-04 15:05:00,86.0,62.2,30.06,SW,220,0.1,1.1,45,0.00,CLR,,0.00,WeatherDisplay:10.37,2013-09-04 20:05:00,
2013-09-04 15:10:00,86.4,63.2,30.05,SW,222,1.7,3.5,46,0.00,CLR,,0.00,WeatherDisplay:10.37,2013-09-04 20:10:00,
2013-09-04 15:15:00,86.6,61.4,30.05,SW,217,0.6,3.5,43,0.00,CLR,,0.00,WeatherDisplay:10.37,2013-09-04 20:15:00,
2013-09-04 15:20:00,87.3,63.4,30.05,South,191,1.5,3.0,45,0.00,CLR,,0.00,WeatherDisplay:10.37,2013-09-04 20:20:00,
2013-09-04 15:25:00,87.5,62.9,30.05,WSW,239,0.8,2.3,44,0.00,CLR,,0.00,WeatherDisplay:10.37,2013-09-04 20:25:00,
2013-09-04 15:30:00,87.6,61.0,30.05,SE,124,0.0,0.0,41,0.00,CLR,,0.00,WeatherDisplay:10.37,2013-09-04 20:30:00,
2013-09-04 15:35:00,88.8,61.4,30.05,North,8,0.3,1.1,40,0.00,CLR,,0.00,WeatherDisplay:10.37,2013-09-04 20:35:00,
2013-09-04 15:40:00,87.5,62.2,30.05,WSW,238,0.4,1.1,43,0.00,CLR,,0.00,WeatherDisplay:10.37,2013-09-04 20:40:00,
2013-09-04 15:45:00,87.7,62.4,30.05,WSW,245,0.4,2.3,43,0.00,CLR,,0.00,WeatherDisplay:10.37,2013-09-04 20:45:00,
2013-09-04 15:50:00,88.2,64.2,30.04,West,271,0.0,0.0,45,0.00,CLR,,0.00,WeatherDisplay:10.37,2013-09-04 20:50:00,
2013-09-04 15:55:00,88.6,59.7,30.04,SE,138,0.4,3.5,38,0.00,CLR,,0.00,WeatherDisplay:10.37,2013-09-04 20:55:00,
2013-09-04 16:00:00,88.3,63.6,30.04,NE,51,0.1,1.0,44,0.00,CLR,,0.00,WeatherDisplay:10.37,2013-09-04 21:00:00,
2013-09-04 16:05:00,87.7,60.4,30.04,NE,40,0.0,0.0,40,0.00,CLR,,0.00,WeatherDisplay:10.37,2013-09-04 21:05:00,
2013-09-04 16:10:00,87.8,61.2,30.04,West,259,1.0,2.3,41,0.00,CLR,,0.00,WeatherDisplay:10.37,2013-09-04 21:10:00,
2013-09-04 16:15:00,87.8,64.4,30.04,West,281,0.0,0.0,46,0.00,CLR,,0.00,WeatherDisplay:10.37,2013-09-04 21:15:00,
2013-09-04 16:20:00,88.2,61.5,30.04,NNE,32,0.8,2.0,41,0.00,CLR,,0.00,WeatherDisplay:10.37,2013-09-04 21:20:00,
2013-09-04 16:25:00,86.5,60.7,30.04,NE,44,0.5,2.3,42,0.00,CLR,,0.00,WeatherDisplay:10.37,2013-09-04 21:25:00,
2013-09-04 16:30:00,86.1,62.3,30.04,North,3,0.0,1.1,45,0.00,CLR,,0.00,WeatherDisplay:10.37,2013-09-04 21:30:00,
2013-09-04 16:35:00,86.3,63.1,30.04,ENE,77,0.3,1.1,46,0.00,CLR,,0.00,WeatherDisplay:10.37,2013-09-04 21:35:00,
2013-09-04 16:40:00,86.5,63.3,30.04,East,100,0.9,2.3,46,0.00,CLR,,0.00,WeatherDisplay:10.37,2013-09-04 21:40:00,
2013-09-04 16:45:00,86.0,61.5,30.03,NNE,19,0.0,1.1,44,0.00,CLR,,0.00,WeatherDisplay:10.37,2013-09-04 21:45:00,
2013-09-04 16:50:00,86.5,65.1,30.03,West,281,0.0,0.0,49,0.00,CLR,,0.00,WeatherDisplay:10.37,2013-09-04 21:50:00,
2013-09-04 16:55:00,86.8,61.6,30.03,West,278,1.2,2.3,43,0.00,CLR,,0.00,WeatherDisplay:10.37,2013-09-04 21:55:00,
2013-09-04 17:00:00,87.1,63.8,30.03,SW,229,0.5,2.3,46,0.00,CLR,,0.00,WeatherDisplay:10.37,2013-09-04 22:00:00,
2013-09-04 17:06:00,87.5,65.4,30.03,ESE,110,0.3,1.1,48,0.00,CLR,,0.00,WeatherDisplay:10.37,2013-09-04 22:06:00,
2013-09-04 17:10:00,87.7,64.4,30.02,SW,224,0.0,1.1,46,0.00,CLR,,0.00,WeatherDisplay:10.37,2013-09-04 22:10:00,
2013-09-04 17:16:00,87.1,62.5,30.02,SSE,159,0.1,1.1,44,0.00,CLR,,0.00,WeatherDisplay:10.37,2013-09-04 22:16:00,
2013-09-04 17:21:00,87.5,62.2,30.02,SSW,198,0.3,1.1,43,0.00,CLR,,0.00,WeatherDisplay:10.37,2013-09-04 22:21:00,
2013-09-04 17:26:00,88.3,62.3,30.02,South,178,0.0,0.0,42,0.00,CLR,,0.00,WeatherDisplay:10.37,2013-09-04 22:26:00,
2013-09-04 17:31:00,88.6,63.9,30.02,SW,217,0.0,1.1,44,0.00,CLR,,0.00,WeatherDisplay:10.37,2013-09-04 22:31:00,
2013-09-04 17:36:00,88.7,64.0,30.02,SSW,203,0.0,0.0,44,0.00,CLR,,0.00,WeatherDisplay:10.37,2013-09-04 22:36:00,
2013-09-04 17:41:00,87.9,63.9,30.02,SE,136,0.0,0.0,45,0.00,CLR,,0.00,WeatherDisplay:10.37,2013-09-04 22:41:00,
2013-09-04 17:46:00,88.8,65.4,30.02,SE,136,0.0,0.0,46,0.00,CLR,,0.00,WeatherDisplay:10.37,2013-09-04 22:46:00,
2013-09-04 17:51:00,89.3,63.2,30.02,SE,136,0.0,0.0,42,0.00,CLR,,0.00,WeatherDisplay:10.37,2013-09-04 22:51:00,
2013-09-04 17:56:00,89.5,64.7,30.02,SE,136,0.0,0.0,44,0.00,CLR,,0.00,WeatherDisplay:10.37,2013-09-04 22:56:00,
2013-09-04 18:01:00,88.2,64.2,30.02,SE,140,0.0,0.0,45,0.00,CLR,,0.00,WeatherDisplay:10.37,2013-09-04 23:01:00,
2013-09-04 18:06:00,87.2,63.9,30.02,SE,139,0.0,0.0,46,0.00,CLR,,0.00,WeatherDisplay:10.37,2013-09-04 23:06:00,
2013-09-04 18:11:00,87.0,64.3,30.02,SE,139,0.0,0.0,47,0.00,CLR,,0.00,WeatherDisplay:10.37,2013-09-04 23:11:00,
2013-09-04 18:16:00,87.3,64.6,30.02,SE,140,0.0,0.0,47,0.00,CLR,,0.00,WeatherDisplay:10.37,2013-09-04 23:16:00,
2013-09-04 18:21:00,87.0,64.3,30.02,SE,140,0.0,0.0,47,0.00,CLR,,0.00,WeatherDisplay:10.37,2013-09-04 23:21:00,
2013-09-04 18:26:00,86.8,64.8,30.02,SE,140,0.0,0.0,48,0.00,CLR,,0.00,WeatherDisplay:10.37,2013-09-04 23:26:00,
2013-09-04 18:31:00,85.5,64.7,30.02,SE,139,0.0,0.0,50,0.00,CLR,,0.00,WeatherDisplay:10.37,2013-09-04 23:31:00,
2013-09-04 18:36:00,84.3,66.4,30.02,SE,140,0.0,0.0,55,0.00,CLR,,0.00,WeatherDisplay:10.37,2013-09-04 23:36:00,
2013-09-04 18:41:00,83.2,65.9,30.02,SE,140,0.0,0.0,56,0.00,CLR,,0.00,WeatherDisplay:10.37,2013-09-04 23:41:00,
2013-09-04 18:46:00,82.3,65.0,30.02,SE,139,0.0,0.0,56,0.00,CLR,,0.00,WeatherDisplay:10.37,2013-09-04 23:46:00,
2013-09-04 18:51:00,81.7,64.5,30.02,SE,139,0.0,0.0,56,0.00,CLR,,0.00,WeatherDisplay:10.37,2013-09-04 23:51:00,
2013-09-04 18:56:00,81.4,64.7,30.03,SE,140,0.0,0.0,57,0.00,CLR,,0.00,WeatherDisplay:10.37,2013-09-04 23:56:00,
2013-09-04 19:01:00,80.9,63.2,30.02,SE,140,0.0,0.0,55,0.00,CLR,,0.00,WeatherDisplay:10.37,2013-09-05 00:01:00,
2013-09-04 19:06:00,80.2,62.6,30.02,SE,139,0.0,0.0,55,0.00,CLR,,0.00,WeatherDisplay:10.37,2013-09-05 00:06:00,
2013-09-04 19:11:00,79.5,61.9,30.02,SE,140,0.0,0.0,55,0.00,CLR,,0.00,WeatherDisplay:10.37,2013-09-05 00:11:00,
2013-09-04 19:16:00,79.1,61.0,30.03,SE,124,0.0,0.0,54,0.00,CLR,,0.00,WeatherDisplay:10.37,2013-09-05 00:16:00,
2013-09-04 19:21:00,79.0,60.9,30.03,SE,124,0.0,0.0,54,0.00,CLR,,0.00,WeatherDisplay:10.37,2013-09-05 00:21:00,
2013-09-04 19:26:00,78.2,61.2,30.03,SE,124,0.0,0.0,56,0.00,CLR,,0.00,WeatherDisplay:10.37,2013-09-05 00:26:00,
2013-09-04 19:31:00,77.6,61.2,30.03,SE,124,0.0,0.0,57,0.00,CLR,,0.00,WeatherDisplay:10.37,2013-09-05 00:31:00,
2013-09-04 19:36:00,77.2,61.8,30.02,SE,124,0.0,0.0,59,0.00,CLR,,0.00,WeatherDisplay:10.37,2013-09-05 00:36:00,
2013-09-04 19:41:00,76.7,62.2,30.02,SE,124,0.0,0.0,61,0.00,CLR,,0.00,WeatherDisplay:10.37,2013-09-05 00:41:00,
2013-09-04 19:46:00,76.1,62.1,30.03,SE,124,0.0,0.0,62,0.00,CLR,,0.00,WeatherDisplay:10.37,2013-09-05 00:46:00,
2013-09-04 19:51:00,75.6,63.0,30.03,ESE,114,0.1,2.3,65,0.00,CLR,,0.00,WeatherDisplay:10.37,2013-09-05 00:51:00,
2013-09-04 19:56:00,75.3,62.7,30.03,ESE,106,0.0,0.0,65,0.00,CLR,,0.00,WeatherDisplay:10.37,2013-09-05 00:56:00,
2013-09-04 20:01:00,75.0,62.0,30.03,East,84,0.0,0.0,64,0.00,,,0.00,WeatherDisplay:10.37,2013-09-05 01:01:00,
2013-09-04 20:06:00,74.9,62.8,30.03,East,79,0.0,0.0,66,0.00,,,0.00,WeatherDisplay:10.37,2013-09-05 01:06:00,
2013-09-04 20:11:00,74.6,62.1,30.03,East,79,0.0,0.0,65,0.00,,,0.00,WeatherDisplay:10.37,2013-09-05 01:11:00,
2013-09-04 20:16:00,74.2,62.1,30.03,East,79,0.0,0.0,66,0.00,,,0.00,WeatherDisplay:10.37,2013-09-05 01:16:00,
2013-09-04 20:21:00,74.0,61.5,30.04,East,80,0.0,0.0,65,0.00,,,0.00,WeatherDisplay:10.37,2013-09-05 01:21:00,
2013-09-04 20:26:00,73.9,62.2,30.04,East,80,0.0,0.0,67,0.00,,,0.00,WeatherDisplay:10.37,2013-09-05 01:26:00,
2013-09-04 20:31:00,73.7,62.1,30.04,ESE,102,0.0,0.0,67,0.00,,,0.00,WeatherDisplay:10.37,2013-09-05 01:31:00,
2013-09-04 20:36:00,73.5,61.4,30.05,ESE,102,0.0,0.0,66,0.00,,,0.00,WeatherDisplay:10.37,2013-09-05 01:36:00,
2013-09-04 20:41:00,73.5,61.9,30.05,ESE,102,0.0,0.0,67,0.00,,,0.00,WeatherDisplay:10.37,2013-09-05 01:41:00,
2013-09-04 20:46:00,73.5,63.1,30.05,East,101,0.0,0.0,70,0.00,,,0.00,WeatherDisplay:10.37,2013-09-05 01:46:00,
2013-09-04 20:51:00,73.1,62.3,30.05,East,84,0.2,1.1,69,0.00,,,0.00,WeatherDisplay:10.37,2013-09-05 01:51:00,
2013-09-04 20:56:00,73.0,62.2,30.05,East,84,0.0,0.0,69,0.00,,,0.00,WeatherDisplay:10.37,2013-09-05 01:56:00,
2013-09-04 21:01:00,72.9,61.7,30.06,East,83,0.0,0.0,68,0.00,,,0.00,WeatherDisplay:10.37,2013-09-05 02:01:00,
2013-09-04 21:06:00,72.9,61.7,30.06,ESE,107,0.0,0.0,68,0.00,,,0.00,WeatherDisplay:10.37,2013-09-05 02:06:00,
2013-09-04 21:11:00,73.1,61.9,30.06,ESE,113,0.3,1.1,68,0.00,,,0.00,WeatherDisplay:10.37,2013-09-05 02:11:00,
2013-09-04 21:16:00,73.2,62.0,30.06,ESE,112,0.0,0.0,68,0.00,,,0.00,WeatherDisplay:10.37,2013-09-05 02:16:00,
2013-09-04 21:21:00,73.3,61.3,30.06,East,91,0.5,0.0,66,0.00,,,0.00,WeatherDisplay:10.37,2013-09-05 02:21:00,
2013-09-04 21:26:00,73.4,61.8,30.06,ESE,104,0.0,0.0,67,0.00,,,0.00,WeatherDisplay:10.37,2013-09-05 02:26:00,
2013-09-04 21:31:00,73.1,61.5,30.07,ESE,105,0.0,0.0,67,0.00,,,0.00,WeatherDisplay:10.37,2013-09-05 02:31:00,
2013-09-04 21:36:00,72.9,61.3,30.07,ESE,106,0.0,0.0,67,0.00,,,0.00,WeatherDisplay:10.37,2013-09-05 02:36:00,
2013-09-04 21:41:00,72.7,61.1,30.07,East,89,0.0,0.0,67,0.00,,,0.00,WeatherDisplay:10.37,2013-09-05 02:41:00,
2013-09-04 21:46:00,72.4,60.8,30.07,East,89,0.0,0.0,67,0.00,,,0.00,WeatherDisplay:10.37,2013-09-05 02:46:00,
2013-09-04 21:51:00,72.3,61.1,30.07,East,91,0.0,0.0,68,0.00,,,0.00,WeatherDisplay:10.37,2013-09-05 02:51:00,
2013-09-04 21:56:00,72.1,61.0,30.07,East,90,0.0,0.0,68,0.00,,,0.00,WeatherDisplay:10.37,2013-09-05 02:56:00,
2013-09-04 22:01:00,71.6,61.3,30.07,East,90,0.0,0.0,70,0.00,,,0.00,WeatherDisplay:10.37,2013-09-05 03:01:00,
2013-09-04 22:06:00,71.1,61.2,30.07,East,91,0.0,0.0,71,0.00,,,0.00,WeatherDisplay:10.37,2013-09-05 03:06:00,
2013-09-04 22:11:00,70.6,61.1,30.07,SW,226,0.0,0.0,72,0.00,CLR,,0.00,WeatherDisplay:10.37,2013-09-05 03:11:00,
2013-09-04 22:16:00,70.3,61.2,30.07,SW,219,0.0,0.0,73,0.00,CLR,,0.00,WeatherDisplay:10.37,2013-09-05 03:16:00,
2013-09-04 22:21:00,69.9,60.8,30.08,SW,219,0.0,0.0,73,0.00,CLR,,0.00,WeatherDisplay:10.37,2013-09-05 03:21:00,
2013-09-04 22:26:00,69.7,61.4,30.08,SW,219,0.0,0.0,75,0.00,CLR,,0.00,WeatherDisplay:10.37,2013-09-05 03:26:00,
2013-09-04 22:31:00,69.7,61.4,30.08,SW,219,0.0,0.0,75,0.00,CLR,,0.00,WeatherDisplay:10.37,2013-09-05 03:31:00,
2013-09-04 22:37:00,69.7,61.0,30.07,SW,219,0.0,0.0,74,0.00,CLR,,0.00,WeatherDisplay:10.37,2013-09-05 03:37:00,
2013-09-04 22:41:00,70.0,60.9,30.08,SW,214,0.0,1.1,73,0.00,CLR,,0.00,WeatherDisplay:10.37,2013-09-05 03:41:00,
2013-09-04 22:47:00,70.4,60.5,30.08,SW,214,0.0,0.0,71,0.00,CLR,,0.00,WeatherDisplay:10.37,2013-09-05 03:47:00,
2013-09-04 22:52:00,70.4,60.9,30.08,SW,214,0.0,0.0,72,0.00,CLR,,0.00,WeatherDisplay:10.37,2013-09-05 03:52:00,
2013-09-04 22:57:00,70.3,60.8,30.08,SSW,213,0.0,0.0,72,0.00,CLR,,0.00,WeatherDisplay:10.37,2013-09-05 03:57:00,
2013-09-04 23:01:00,70.3,60.4,30.08,SW,214,0.0,0.0,71,0.00,CLR,,0.00,WeatherDisplay:10.37,2013-09-05 04:01:00,
2013-09-04 23:06:00,70.2,61.1,30.08,SW,214,0.0,0.0,73,0.00,CLR,,0.00,WeatherDisplay:10.37,2013-09-05 04:06:00,
2013-09-04 23:11:00,69.9,60.5,30.08,SW,214,0.0,0.0,72,0.00,CLR,,0.00,WeatherDisplay:10.37,2013-09-05 04:11:00,
2013-09-04 23:17:00,69.7,60.7,30.08,SSW,213,0.0,0.0,73,0.00,CLR,,0.00,WeatherDisplay:10.37,2013-09-05 04:17:00,
2013-09-04 23:22:00,69.6,60.6,30.08,SW,214,0.0,0.0,73,0.00,CLR,,0.00,WeatherDisplay:10.37,2013-09-05 04:22:00,
2013-09-04 23:27:00,69.6,60.6,30.08,SW,214,0.0,0.0,73,0.00,CLR,,0.00,WeatherDisplay:10.37,2013-09-05 04:27:00,
2013-09-04 23:32:00,69.3,60.3,30.08,SSW,213,0.0,0.0,73,0.00,CLR,,0.00,WeatherDisplay:10.37,2013-09-05 04:32:00,
2013-09-04 23:37:00,69.1,60.1,30.08,SW,214,0.0,0.0,73,0.00,CLR,,0.00,WeatherDisplay:10.37,2013-09-05 04:37:00,
2013-09-04 23:42:00,68.9,60.3,30.08,SSW,213,0.0,0.0,74,0.00,CLR,,0.00,WeatherDisplay:10.37,2013-09-05 04:42:00,
2013-09-04 23:47:00,68.7,60.1,30.08,SW,214,0.0,0.0,74,0.00,CLR,,0.00,WeatherDisplay:10.37,2013-09-05 04:47:00,
2013-09-04 23:52:00,68.4,59.8,30.08,SW,214,0.0,0.0,74,0.00,CLR,,0.00,WeatherDisplay:10.37,2013-09-05 04:52:00,
2013-09-04 23:57:00,68.3,60.4,30.08,SW,214,0.0,0.0,76,0.00,CLR,,0.00,WeatherDisplay:10.37,2013-09-05 04:57:00,